Webcam more information Webcam


altri nostri siti meteo:

RISCHIO INCENDIRischio incendi

Pomeziameteo 1Sito sul meteo

Pomeziameteo DashboardSito sul meteo

Caput FrigorisSito sul meteo

BarcellonameteoSito sul meteo

MeteoipassiSito sul meteo

TortoretometeolidoSito sul meteo

CastelnuovovomanometeoSito sul meteo

MeteogonzagaSito sul meteo

MeteonetworkInvio dai a Meteonetwork



Vento Da: 17-06-2019 12:00 Fino a: 17:59 Avvertimento per: Vento Livello: Giallo info button

Select another period ( hide this area )

Unita Periodo Custom range Directly to
Metrico Inglese Entrambi
Quotidiano Settimanale mensile Annuale
use both date-selectors for a custom range
previous Day
With this date

WeatherUnderground graphs for this period ( click here )


Quotidiano Riepilogo per Lunedi' 17 Giugno 2019
Tempo Temp. ( °C ) Dew pt. ( °C ) Vento ( km/h ) da Raffica ( km/h ) Pressione ( hPa ) Humid.( % ) Rainrate ( cm )
Max21,9 15,1 19,3 NE ( 389/907 ) 22,5 1013,8 66 -
Media21,0 13,6 8,2 NE #45/110 14,6 1013,0 63 -
Min19,9 12,6 1,6   4,8 1012,4 60 -
Quotidiano Tabular details for Lunedi' 17 Giugno 2019
Tempo Temp. ( °C ) Dew pt. ( °C ) Vento ( km/h ) da Raffica ( km/h ) Pressione ( hPa ) Humid.( % ) Rainrate ( cm )
00:00 21,4 14,1 1,6 Oriente 6,4 1013,4 63 -
00:05 21,4 14,0 4,8 Oriente 6,4 1013,4 63 -
00:10 21,3 13,9 3,2 Oriente 8,0 1013,4 63 -
00:15 21,4 13,8 11,3 NE 11,3 1013,4 62 -
00:20 21,6 14,0 1,6 NE 11,3 1013,4 62 -
00:25 21,7 13,8 1,6 NE 6,4 1013,1 61 -
00:30 21,9 14,0 3,2 NE 6,4 1013,4 61 -
00:35 21,9 13,8 8,0 NE 8,0 1013,4 60 -
00:40 21,9 13,8 3,2 NE 8,0 1013,4 60 -
00:45 21,9 14,0 1,6 NE 8,0 1013,4 61 -
00:50 21,8 13,9 8,0 NE 8,0 1013,4 61 -
00:55 21,8 13,9 6,4 NE 9,7 1013,4 61 -
01:00 21,9 13,7 4,8 NE 9,7 1013,4 60 -
01:05 21,8 13,7 6,4 NE 12,9 1013,4 60 -
01:10 21,7 13,6 9,7 NE 14,5 1013,4 60 -
01:15 21,7 13,8 8,0 NE 14,5 1013,4 61 -
01:20 21,6 13,7 6,4 NE 12,9 1013,4 61 -
01:25 21,6 13,7 8,0 NE 9,7 1013,4 61 -
01:30 21,6 13,7 8,0 NE 14,5 1013,1 61 -
01:35 21,6 13,7 8,0 NE 11,3 1013,4 61 -
01:40 21,6 13,7 9,7 NE 14,5 1013,4 61 -
01:45 21,6 13,7 9,7 NE 14,5 1013,4 61 -
01:50 21,5 13,6 9,7 NE 16,1 1013,4 61 -
01:55 21,5 13,6 6,4 NE 16,1 1013,1 61 -
02:00 21,5 13,6 8,0 Oriente 12,9 1013,1 61 -
02:05 21,5 13,6 11,3 NE 14,5 1013,1 61 -
02:10 21,5 13,6 6,4 NE 9,7 1013,1 61 -
02:15 21,4 13,5 8,0 NE 14,5 1013,1 61 -
02:20 21,3 13,7 9,7 NE 17,7 1013,1 62 -
02:25 21,2 13,6 9,7 NE 14,5 1013,1 62 -
02:30 21,1 13,5 11,3 NE 16,1 1012,8 62 -
02:35 21,1 13,7 8,0 NE 14,5 1012,8 63 -
02:40 21,0 13,7 9,7 NE 16,1 1012,8 63 -
02:45 20,9 13,6 6,4 NE 17,7 1012,8 63 -
02:50 20,9 13,6 12,9 NE 16,1 1012,8 63 -
02:55 20,9 13,8 6,4 NE 14,5 1012,8 64 -
03:00 20,9 13,8 9,7 Oriente 16,1 1012,8 64 -
03:05 20,8 13,7 11,3 Oriente 16,1 1012,8 64 -
03:10 20,8 13,7 12,9 NE 16,1 1012,8 64 -
03:15 20,8 13,7 14,5 NE 16,1 1012,8 64 -
03:20 20,8 13,7 8,0 NE 16,1 1012,8 64 -
03:25 20,7 13,9 9,7 NE 14,5 1012,8 65 -
03:30 20,7 13,9 6,4 NE 14,5 1012,4 65 -
03:35 20,8 13,7 8,0 NE 16,1 1012,4 64 -
03:40 20,8 13,7 8,0 NE 14,5 1012,4 64 -
03:45 20,9 13,8 9,7 NE 12,9 1012,4 64 -
03:50 20,9 13,8 8,0 NE 9,7 1012,4 64 -
03:55 20,8 13,7 6,4 NE 12,9 1012,4 64 -
04:00 20,8 13,7 11,3 NE 12,9 1012,4 64 -
04:05 20,7 13,6 9,7 NE 12,9 1012,4 64 -
04:10 20,7 13,4 8,0 NE 14,5 1012,4 63 -
04:15 20,7 13,4 4,8 NE 14,5 1012,4 63 -
04:20 20,7 13,4 9,7 NE 16,1 1012,4 63 -
04:25 20,7 13,3 11,3 NE 16,1 1012,4 63 -
04:30 20,6 13,3 8,0 NE 16,1 1012,4 63 -
04:35 20,7 13,1 6,4 NE 19,3 1012,4 62 -
04:40 20,7 13,1 11,3 NE 16,1 1012,4 62 -
04:45 20,7 13,2 11,3 NE 17,7 1012,4 62 -
04:50 20,7 13,1 11,3 NE 17,7 1012,4 62 -
04:55 20,6 12,8 4,8 Oriente 16,1 1012,4 61 -
05:00 20,5 12,7 8,0 NE 17,7 1012,4 61 -
05:05 20,4 12,9 17,7 Oriente 20,9 1012,4 62 -
05:10 20,4 12,6 17,7 NE 20,9 1012,4 61 -
05:15 20,4 12,6 12,9 NE 22,5 1012,4 61 -
05:20 20,4 12,9 9,7 NE 22,5 1012,4 62 -
05:25 20,4 12,8 6,4 NE 19,3 1012,4 62 -
05:30 20,3 12,8 17,7 Oriente 22,5 1012,4 62 -
05:35 20,2 12,9 14,5 NE 20,9 1012,4 63 -
05:40 20,2 12,9 4,8 NE 19,3 1012,4 63 -
05:45 20,1 12,8 12,9 NE 19,3 1012,4 63 -
05:50 20,1 13,1 19,3 NE 20,9 1012,4 64 -
05:55 20,0 12,9 6,4 NE 17,7 1012,4 64 -
06:00 19,9 13,1 12,9 NE 19,3 1012,8 65 -
06:05 19,9 13,1 11,3 Oriente 16,1 1012,8 65 -
06:10 19,9 13,1 12,9 NE 16,1 1012,8 65 -
06:15 19,9 13,1 9,7 NE 19,3 1012,8 65 -
06:20 19,9 13,1 6,4 NE 14,5 1012,8 65 -
06:25 20,0 13,4 8,0 NE 14,5 1012,8 66 -
06:30 20,1 13,2 1,6 SE 16,1 1012,8 65 -
06:35 20,1 13,3 4,8 NE 9,7 1013,1 65 -
06:40 20,2 13,4 1,6 Oriente 6,4 1013,1 65 -
06:45 20,4 13,6 1,6 NE 4,8 1013,1 65 -
06:50 20,5 13,7 1,6 Oriente 8,0 1013,1 65 -
06:55 20,6 13,5 1,6 Oriente 9,7 1013,1 64 -
07:00 20,7 13,6 4,8 Oriente 8,0 1013,1 64 -
07:05 20,8 13,7 1,6 Oriente 9,7 1013,1 64 -
07:10 20,8 13,7 8,0 NE 14,5 1013,1 64 -
07:15 20,9 13,8 8,0 NE 12,9 1013,1 64 -
07:20 20,9 13,6 3,2 NE 14,5 1013,1 63 -
07:25 21,1 13,8 6,4 NE 12,9 1013,4 63 -
07:30 21,1 13,8 6,4 Oriente 11,3 1013,4 63 -
07:35 21,0 13,9 6,4 NE 14,5 1013,4 64 -
07:40 21,1 13,9 4,8 NE 11,3 1013,4 64 -
07:45 21,2 14,1 8,0 NE 17,7 1013,4 64 -
07:50 21,2 14,1 4,8 NE 17,7 1013,4 64 -
07:55 21,2 13,9 9,7 NE 17,7 1013,4 63 -
08:00 21,3 13,9 14,5 NE 20,9 1013,4 63 -
08:05 21,3 13,9 8,0 NE 16,1 1013,4 63 -
08:10 21,3 14,2 16,1 NE 17,7 1013,4 64 -
08:15 21,3 14,2 4,8 NE 17,7 1013,4 64 -
08:20 21,3 14,2 12,9 NE 20,9 1013,4 64 -
08:25 21,3 14,2 16,1 NE 17,7 1013,4 64 -
08:30 21,3 14,4 11,3 NE 16,1 1013,4 65 -
08:35 21,3 14,2 9,7 NE 17,7 1013,8 64 -
08:40 21,2 14,3 9,7 Nord 17,7 1013,8 65 -
08:45 21,2 14,6 9,7 NE 17,7 1013,8 66 -
08:50 21,6 14,9 8,0 NE 19,3 1013,4 66 -
08:55 21,5 14,8 6,4 NE 19,3 1013,8 66 -
09:00 21,7 15,1 3,2 NE 11,3 1013,8 66 -
09:05 21,8 15,1 4,8 NE 11,3 1013,8 66 -
Quotidiano Riepilogo per Lunedi' 17 Giugno 2019
Tempo Temp. ( °C ) Dew pt. ( °C ) Vento ( km/h ) da Raffica ( km/h ) Pressione ( hPa ) Humid.( % ) Rainrate ( cm )
Max21,9 15,1 19,3 NE ( 389/907 ) 22,5 1013,8 66 -
Media21,0 13,6 8,2 NE #45/110 14,6 1013,0 63 -
Min19,9 12,6 1,6   4,8 1012,4 60 -
Quotidiano Tabular details for Lunedi' 17 Giugno 2019
Tempo Temp. ( °C ) Dew pt. ( °C ) Vento ( km/h ) da Raffica ( km/h ) Pressione ( hPa ) Humid.( % ) Rainrate ( cm )
00:00 21,4 14,1 1,6 Oriente 6,4 1013,4 63 -
00:05 21,4 14,0 4,8 Oriente 6,4 1013,4 63 -
00:10 21,3 13,9 3,2 Oriente 8,0 1013,4 63 -
00:15 21,4 13,8 11,3 NE 11,3 1013,4 62 -
00:20 21,6 14,0 1,6 NE 11,3 1013,4 62 -
00:25 21,7 13,8 1,6 NE 6,4 1013,1 61 -
00:30 21,9 14,0 3,2 NE 6,4 1013,4 61 -
00:35 21,9 13,8 8,0 NE 8,0 1013,4 60 -
00:40 21,9 13,8 3,2 NE 8,0 1013,4 60 -
00:45 21,9 14,0 1,6 NE 8,0 1013,4 61 -
00:50 21,8 13,9 8,0 NE 8,0 1013,4 61 -
00:55 21,8 13,9 6,4 NE 9,7 1013,4 61 -
01:00 21,9 13,7 4,8 NE 9,7 1013,4 60 -
01:05 21,8 13,7 6,4 NE 12,9 1013,4 60 -
01:10 21,7 13,6 9,7 NE 14,5 1013,4 60 -
01:15 21,7 13,8 8,0 NE 14,5 1013,4 61 -
01:20 21,6 13,7 6,4 NE 12,9 1013,4 61 -
01:25 21,6 13,7 8,0 NE 9,7 1013,4 61 -
01:30 21,6 13,7 8,0 NE 14,5 1013,1 61 -
01:35 21,6 13,7 8,0 NE 11,3 1013,4 61 -
01:40 21,6 13,7 9,7 NE 14,5 1013,4 61 -
01:45 21,6 13,7 9,7 NE 14,5 1013,4 61 -
01:50 21,5 13,6 9,7 NE 16,1 1013,4 61 -
01:55 21,5 13,6 6,4 NE 16,1 1013,1 61 -
02:00 21,5 13,6 8,0 Oriente 12,9 1013,1 61 -
02:05 21,5 13,6 11,3 NE 14,5 1013,1 61 -
02:10 21,5 13,6 6,4 NE 9,7 1013,1 61 -
02:15 21,4 13,5 8,0 NE 14,5 1013,1 61 -
02:20 21,3 13,7 9,7 NE 17,7 1013,1 62 -
02:25 21,2 13,6 9,7 NE 14,5 1013,1 62 -
02:30 21,1 13,5 11,3 NE 16,1 1012,8 62 -
02:35 21,1 13,7 8,0 NE 14,5 1012,8 63 -
02:40 21,0 13,7 9,7 NE 16,1 1012,8 63 -
02:45 20,9 13,6 6,4 NE 17,7 1012,8 63 -
02:50 20,9 13,6 12,9 NE 16,1 1012,8 63 -
02:55 20,9 13,8 6,4 NE 14,5 1012,8 64 -
03:00 20,9 13,8 9,7 Oriente 16,1 1012,8 64 -
03:05 20,8 13,7 11,3 Oriente 16,1 1012,8 64 -
03:10 20,8 13,7 12,9 NE 16,1 1012,8 64 -
03:15 20,8 13,7 14,5 NE 16,1 1012,8 64 -
03:20 20,8 13,7 8,0 NE 16,1 1012,8 64 -
03:25 20,7 13,9 9,7 NE 14,5 1012,8 65 -
03:30 20,7 13,9 6,4 NE 14,5 1012,4 65 -
03:35 20,8 13,7 8,0 NE 16,1 1012,4 64 -
03:40 20,8 13,7 8,0 NE 14,5 1012,4 64 -
03:45 20,9 13,8 9,7 NE 12,9 1012,4 64 -
03:50 20,9 13,8 8,0 NE 9,7 1012,4 64 -
03:55 20,8 13,7 6,4 NE 12,9 1012,4 64 -
04:00 20,8 13,7 11,3 NE 12,9 1012,4 64 -
04:05 20,7 13,6 9,7 NE 12,9 1012,4 64 -
04:10 20,7 13,4 8,0 NE 14,5 1012,4 63 -
04:15 20,7 13,4 4,8 NE 14,5 1012,4 63 -
04:20 20,7 13,4 9,7 NE 16,1 1012,4 63 -
04:25 20,7 13,3 11,3 NE 16,1 1012,4 63 -
04:30 20,6 13,3 8,0 NE 16,1 1012,4 63 -
04:35 20,7 13,1 6,4 NE 19,3 1012,4 62 -
04:40 20,7 13,1 11,3 NE 16,1 1012,4 62 -
04:45 20,7 13,2 11,3 NE 17,7 1012,4 62 -
04:50 20,7 13,1 11,3 NE 17,7 1012,4 62 -
04:55 20,6 12,8 4,8 Oriente 16,1 1012,4 61 -
05:00 20,5 12,7 8,0 NE 17,7 1012,4 61 -
05:05 20,4 12,9 17,7 Oriente 20,9 1012,4 62 -
05:10 20,4 12,6 17,7 NE 20,9 1012,4 61 -
05:15 20,4 12,6 12,9 NE 22,5 1012,4 61 -
05:20 20,4 12,9 9,7 NE 22,5 1012,4 62 -
05:25 20,4 12,8 6,4 NE 19,3 1012,4 62 -
05:30 20,3 12,8 17,7 Oriente 22,5 1012,4 62 -
05:35 20,2 12,9 14,5 NE 20,9 1012,4 63 -
05:40 20,2 12,9 4,8 NE 19,3 1012,4 63 -
05:45 20,1 12,8 12,9 NE 19,3 1012,4 63 -
05:50 20,1 13,1 19,3 NE 20,9 1012,4 64 -
05:55 20,0 12,9 6,4 NE 17,7 1012,4 64 -
06:00 19,9 13,1 12,9 NE 19,3 1012,8 65 -
06:05 19,9 13,1 11,3 Oriente 16,1 1012,8 65 -
06:10 19,9 13,1 12,9 NE 16,1 1012,8 65 -
06:15 19,9 13,1 9,7 NE 19,3 1012,8 65 -
06:20 19,9 13,1 6,4 NE 14,5 1012,8 65 -
06:25 20,0 13,4 8,0 NE 14,5 1012,8 66 -
06:30 20,1 13,2 1,6 SE 16,1 1012,8 65 -
06:35 20,1 13,3 4,8 NE 9,7 1013,1 65 -
06:40 20,2 13,4 1,6 Oriente 6,4 1013,1 65 -
06:45 20,4 13,6 1,6 NE 4,8 1013,1 65 -
06:50 20,5 13,7 1,6 Oriente 8,0 1013,1 65 -
06:55 20,6 13,5 1,6 Oriente 9,7 1013,1 64 -
07:00 20,7 13,6 4,8 Oriente 8,0 1013,1 64 -
07:05 20,8 13,7 1,6 Oriente 9,7 1013,1 64 -
07:10 20,8 13,7 8,0 NE 14,5 1013,1 64 -
07:15 20,9 13,8 8,0 NE 12,9 1013,1 64 -
07:20 20,9 13,6 3,2 NE 14,5 1013,1 63 -
07:25 21,1 13,8 6,4 NE 12,9 1013,4 63 -
07:30 21,1 13,8 6,4 Oriente 11,3 1013,4 63 -
07:35 21,0 13,9 6,4 NE 14,5 1013,4 64 -
07:40 21,1 13,9 4,8 NE 11,3 1013,4 64 -
07:45 21,2 14,1 8,0 NE 17,7 1013,4 64 -
07:50 21,2 14,1 4,8 NE 17,7 1013,4 64 -
07:55 21,2 13,9 9,7 NE 17,7 1013,4 63 -
08:00 21,3 13,9 14,5 NE 20,9 1013,4 63 -
08:05 21,3 13,9 8,0 NE 16,1 1013,4 63 -
08:10 21,3 14,2 16,1 NE 17,7 1013,4 64 -
08:15 21,3 14,2 4,8 NE 17,7 1013,4 64 -
08:20 21,3 14,2 12,9 NE 20,9 1013,4 64 -
08:25 21,3 14,2 16,1 NE 17,7 1013,4 64 -
08:30 21,3 14,4 11,3 NE 16,1 1013,4 65 -
08:35 21,3 14,2 9,7 NE 17,7 1013,8 64 -
08:40 21,2 14,3 9,7 Nord 17,7 1013,8 65 -
08:45 21,2 14,6 9,7 NE 17,7 1013,8 66 -
08:50 21,6 14,9 8,0 NE 19,3 1013,4 66 -
08:55 21,5 14,8 6,4 NE 19,3 1013,8 66 -
09:00 21,7 15,1 3,2 NE 11,3 1013,8 66 -
09:05 21,8 15,1 4,8 NE 11,3 1013,8 66 -

Download your copy of this data-set  here

Our weather-data as stored at Weather Underground. Script sviluppato da Jim McMurry. Adattato per il modello da Leuven-Template.eu

Strumentazione usata:

Stazione meteo
Davis VP2

Programma gestore dati meteo
WVIEW

Server per i dati meteo
WDS-5

Davis VP2

WVIEW

WDS-5